Moses Lake, WA

5:44 PM PST on December 05, 2016 (GMT -0800)
Grant County International

Weather History for KMWH - May, 2014

Change the Weather History Date:

Thursday, May 8, 2014

  Actual Average Record
Temperature  
Mean Temperature 60 °F 57 °F  
Max Temperature 73 °F 71 °F 91 °F (2013)
Min Temperature 47 °F 42 °F 27 °F (2002)
Degree Days  
Heating Degree Days 5 9  
Month to date heating degree days 40 79  
Since 1 July heating degree days 5552 5696  
Cooling Degree Days 0 0  
Month to date cooling degree days 3 0  
Year to date cooling degree days 3 1  
Growing Degree Days 9 (Base 50)    
Moisture  
Dew Point 41 °F    
Average Humidity 59    
Maximum Humidity 93    
Minimum Humidity 25    
Precipitation  
Precipitation 0.10 in 0.02 in 0.10 in (2004)
Month to date precipitation 0.10 0.15  
Year to date precipitation 2.73 3.57  
Sea Level Pressure  
Sea Level Pressure 29.74 in    
Wind  
Wind Speed 9 mph (South)    
Max Wind Speed 25 mph    
Max Gust Speed 32 mph    
Visibility 10 miles    
Events Rain    
T = Trace of Precipitation, MM = Missing Value Source: NWS Daily Summary

Daily Weather History Graph

Daily Weather History Graph

Search for Another Location

Airport or City:

Trip Planner

Search our weather history database for the weather conditions in past years. The results will help you decide how hot, cold, wet, or windy it might be!

Date:

Astronomy

May. 08, 2014 Rise Set
Actual Time 5:30 AM PDT 8:17 PM PDT
Civil Twilight 4:55 AM PDT 8:53 PM PDT
Nautical Twilight 4:10 AM PDT 9:38 PM PDT
Astronomical Twilight 3:17 AM PDT 10:31 PM PDT
Moon 1:59 PM PDT (5/8) 2:29 AM PDT (5/8)
Length of Visible Light 15h 57m
Length of Day
14h 47m
Waxing Gibbous, 66% of the Moon is Illuminated
May 8
Waxing Gibbous
May 14
Full
May 21
Last Quarter
May 28
New
Jun 5
First Quarter

Hourly Weather History & Observations

Time (PDT) Temp. Dew Point Humidity Pressure Visibility Wind Dir Wind Speed Gust Speed Precip Events Conditions
12:52 AM 53.1 °F 34.0 °F 48% 29.82 in 10.0 mi South 6.9 mph - N/A   Clear
1:52 AM 54.0 °F 37.0 °F 53% 29.81 in 10.0 mi SSW 3.5 mph - N/A   Clear
2:52 AM 54.0 °F 39.9 °F 59% 29.81 in 10.0 mi SW 3.5 mph - N/A   Mostly Cloudy
3:52 AM 51.1 °F 36.0 °F 56% 29.81 in 10.0 mi Calm Calm - N/A   Overcast
4:52 AM 48.9 °F 37.9 °F 66% 29.81 in 10.0 mi Calm Calm - N/A   Mostly Cloudy
5:52 AM 46.9 °F 37.9 °F 71% 29.81 in 10.0 mi SSE 5.8 mph - N/A   Mostly Cloudy
6:52 AM 50.0 °F 35.1 °F 57% 29.81 in 10.0 mi SE 6.9 mph - N/A   Clear
7:52 AM 51.8 °F 35.6 °F 54% 29.82 in 10.0 mi SSE 10.4 mph - N/A   Clear
8:52 AM 57.9 °F 36.0 °F 44% 29.82 in 10.0 mi South 11.5 mph - N/A   Partly Cloudy
9:52 AM 60.1 °F 37.9 °F 44% 29.80 in 10.0 mi SE 12.7 mph - N/A   Partly Cloudy
10:52 AM 64.0 °F 39.0 °F 40% 29.79 in 10.0 mi South 11.5 mph - N/A   Mostly Cloudy
11:52 AM 69.1 °F 37.0 °F 31% 29.76 in 10.0 mi South 13.8 mph 21.9 mph N/A   Mostly Cloudy
12:52 PM 69.1 °F 36.0 °F 30% 29.74 in 10.0 mi SSW 9.2 mph - N/A   Clear
1:52 PM 72.0 °F 34.0 °F 25% 29.70 in 10.0 mi South 13.8 mph 21.9 mph N/A   Overcast
2:52 PM 69.1 °F 35.1 °F 29% 29.69 in 10.0 mi South 12.7 mph - N/A   Overcast
3:52 PM 68.0 °F 35.1 °F 30% 29.67 in 10.0 mi SSW 19.6 mph 24.2 mph N/A   Overcast
4:03 PM 66.9 °F 35.1 °F 31% 29.67 in 10.0 mi SW 15.0 mph 28.8 mph N/A   Overcast
4:52 PM 62.6 °F 44.6 °F 52% 29.71 in 10.0 mi SW 20.7 mph 26.5 mph N/A   Overcast
5:52 PM 55.0 °F 51.1 °F 86% 29.73 in 10.0 mi South 11.5 mph - 0.06 in Rain Light Rain
6:52 PM 54.0 °F 50.0 °F 86% 29.70 in 10.0 mi SSE 10.4 mph - 0.01 in   Overcast
7:52 PM 54.0 °F 50.0 °F 86% 29.68 in 10.0 mi SSE 11.5 mph - N/A   Overcast
8:52 PM 54.0 °F 51.1 °F 90% 29.67 in 10.0 mi SSE 8.1 mph - 0.00 in Rain Light Rain
9:52 PM 53.1 °F 51.1 °F 93% 29.66 in 10.0 mi SSE 5.8 mph - 0.01 in   Overcast
10:52 PM 53.1 °F 51.1 °F 93% 29.66 in 10.0 mi South 6.9 mph - N/A   Overcast
11:18 PM 53.1 °F 51.1 °F 93% 29.66 in 10.0 mi South 6.9 mph - 0.01 in   Overcast
11:52 PM 53.1 °F 51.1 °F 93% 29.65 in 10.0 mi South 5.8 mph - 0.01 in   Overcast